STARLINK-31656, 60286

Orbit data source: Space-Track

STARLINK-31656, 60286 is a payload satellite owned by SpaceX/Seattle (US) in LEO that was launched on Sun, 28 Jul 2024 UTC via an FALCON 9 launch vehicle from the Air Force Eastern Test Range (AFETR). Payloads include a variety of satellites, spacecraft, and rockets equipped with specific instruments for various scientific and technological missions. These include communications satellites like Starlink; space stations such as the ISS; scientific satellites like the Hubble; Earth observation satellites from companies like Planet Labs, Umbra, and HawkEye 360; GPS; miniature CubeSats for education and research; and military/defense satellites.

Loading next visibility...
STARLINK-31656 details
Identifier
60286, 2024-132J
Orbit
LEO
Last TLE update23 hours ago
Origin
Flag of USSpaceX/Seattle (US)
ManufacturerSpaceX/Seattle
MissionOperational spacecraft
Bus & MotorSTARLINK V2M, Unknown motor
Mass730 kg wet, ~700 kg dry
Launch date (UTC)
2024-07-28 (5 months ago)
Launch vehicle
FALCON 9
Launch site
Air Force Eastern Test Range (AFETR)
Object type
Payload
Rocket body
Debris
Shape & HBRUnknown
Radar Cross SectionLarge (>1 m²)

Expand to show TLE details & history

TLE from 23 hours ago
0 STARLINK-31656
1 60286U 24132J   24355.61498496  .00023861  00000-0  81502-3 0  9999
2 60286  53.1612 314.9038 0001390  79.0276 281.0881 15.30205642 23577
Epoch: 2024-12-20T14:45Z
Definitive object data (Epoch: 2024-12-20T14:45:34.7Z)
Latitude-0.00003°
Longitude3.83124°
Altitude475.915 km
Speed7.629 km/s
True Right ascension20h 59m 36s
True Declination0° 00' 00"
Sunlit
Object was in daylight at TLE epoch
Visualization TLE readout
Latitude33.98513°
Longitude149.3204°
Altitude476.893 km
Speed7.632 km/s
Apparent Right ascension03h 49m 25s
Apparent Declination-2° 04' 39"
Sunlit
Object is in full shadow
Visualization observer readout
Local Sidereal Time12:19:41
Azimuth294.629° NW
Elevation-29.378°
Doppler factor1
Orbital elements
Apogee altitude476.407 km
Perigee altitude474.502 km
Semi-major axis6,853.591 km
Eccentricity0.000139
Inclination53.1612°
RAAN314.9038°
Arg. of periapsis79.0276°
True anomaly281.07247°
Mean anomaly281.0881°
Eccentric anomaly281.08028°
Mean motion3.8253 °/min
BSTAR0.00081502
Orbital period94.11 mins
Loading maneuver chart data...
Loading historical data...
Loading historical data...
Loading historical data...
Loading historical data...
Loading historical data...
Loading historical data...
Loading historical data...

STARLINK-31656 Visibility forecast

Observer location: undefined°, undefined

Span
Click to sort rows by Start time (UTC) header in descending order
Start Az.
Max El. time (UTC)
Max El. Az.
Max El.
End time (UTC)
End Az.
6 mins2024-12-21 23:50:45.086Z221.062° SW2024-12-21 23:53:45.086Z181.638° SSW42.103°2024-12-21 23:56:45.086Z55.836° ENE
4 mins2024-12-22 01:30:45.086Z301.887° NW2024-12-22 01:32:45.086Z345.747° N19.052°2024-12-22 01:34:45.086Z21.649° NNE
5 mins2024-12-22 06:26:45.086Z321.542° NNW2024-12-22 06:28:45.086Z6.625° NNE39.417°2024-12-22 06:31:45.086Z114.1° SE
|